Location: Newark
(23.1505°N, 82.3567°W)
Time: 14:19:19
(UTC+00:00)

LightSail 2 - Visible Passes

Search period start: 28 January 2020 00:00
Search period end: 07 February 2020 00:00
Orbit: 704 x 719 km, 24.0° (Epoch: 27 January)

Date Brightness Start Highest point End Pass type
(mag) Time Alt. Az. Time Alt. Az. Time Alt. Az.
28 Jan 6.7 01:27:46 10° W 01:31:50 29° SSW 01:31:50 29° SSW visible
29 Jan 6.2 00:29:02 10° W 00:33:48 39° SSW 00:37:26 16° SE visible
29 Jan 6.0 23:30:23 10° W 23:35:21 51° SSW 23:40:21 10° ESE visible
30 Jan 7.2 01:17:00 10° WSW 01:20:33 19° SSW 01:22:05 17° S visible
31 Jan 7.0 00:17:56 10° WSW 00:22:08 25° SSW 00:26:21 10° SSE visible
01 Feb 7.9 01:07:41 10° SW 01:08:49 11° SSW 01:09:57 10° SSW visible
02 Feb 7.7 00:07:22 10° WSW 00:10:23 16° SSW 00:13:24 10° S visible
